KAL273 VVTS-RKSI

Flight info

Callsign KAL273
Flight time N/A
Altitude 37000
Route PATMA5G PATMA W12 PCA G221 BUNTA A1 IKELA/N0493F370 DCT MORTU DCT NOBAD DCT KAPLI G86 ANDRE A577 TNN W4 ANLOT B1 APU DCT DRAKE Q11 WP900 L4 LIPLO Y741 ATOTI Y722 OLMEN
Aircraft B77W/H-SDE1E2E3FGHIJ2J3J4J5M1RWXY/LB1D1

Departure

Time 2026-05-05 06:21
Airport Tan Son Nhat International Airport (VVTS)

Arrival

Time N/A
Airport Incheon International Airport (RKSI)
Time Latitude Longitude Altitude Speed Heading
2026-05-05 05:57 10.81522 106.66127 42 ft 0 kts 95°
2026-05-05 06:09 10.81522 106.66126 42 ft 2 kts 95°
2026-05-05 06:10 10.81523 106.66100 42 ft 4 kts 83°
2026-05-05 06:10 10.81517 106.66074 37 ft 4 kts 65°
2026-05-05 06:10 10.81502 106.66051 37 ft 4 kts 42°
2026-05-05 06:10 10.81480 106.66036 41 ft 4 kts 19°
2026-05-05 06:11 10.81457 106.66031 38 ft 1 kts
2026-05-05 06:14 10.81490 106.66035 39 ft 10 kts
2026-05-05 06:14 10.81601 106.66050 42 ft 21 kts
2026-05-05 06:15 10.81715 106.66002 42 ft 18 kts 265°
2026-05-05 06:15 10.81671 106.65872 41 ft 21 kts 248°
2026-05-05 06:15 10.81617 106.65733 41 ft 22 kts 249°
2026-05-05 06:15 10.81564 106.65584 41 ft 23 kts 250°
2026-05-05 06:16 10.81503 106.65428 42 ft 24 kts 248°
2026-05-05 06:16 10.81441 106.65268 42 ft 24 kts 248°
2026-05-05 06:16 10.81384 106.65105 42 ft 24 kts 250°
2026-05-05 06:16 10.81320 106.64945 43 ft 24 kts 248°
2026-05-05 06:17 10.81258 106.64780 43 ft 25 kts 250°
2026-05-05 06:17 10.81196 106.64611 43 ft 26 kts 249°
2026-05-05 06:17 10.81130 106.64440 41 ft 27 kts 249°
2026-05-05 06:17 10.81062 106.64259 40 ft 28 kts 249°
2026-05-05 06:18 10.80988 106.64066 39 ft 30 kts 249°
2026-05-05 06:18 10.80931 106.63916 42 ft 18 kts 248°
2026-05-05 06:18 10.80957 106.63799 42 ft 18 kts 306°
2026-05-05 06:18 10.81060 106.63727 40 ft 18 kts 337°
2026-05-05 06:19 10.81152 106.63747 39 ft 14 kts 51°
2026-05-05 06:19 10.81193 106.63840 36 ft 15 kts 66°
2026-05-05 06:19 10.81231 106.63937 36 ft 15 kts 69°
2026-05-05 06:19 10.81268 106.64035 38 ft 15 kts 69°
2026-05-05 06:20 10.81305 106.64132 38 ft 15 kts 69°
2026-05-05 06:20 10.81342 106.64230 39 ft 15 kts 73°
2026-05-05 06:20 10.81379 106.64327 42 ft 15 kts 69°
2026-05-05 06:20 10.81398 106.64379 43 ft 0 kts 70°
2026-05-05 06:21 10.81467 106.64573 43 ft 66 kts 70°
2026-05-05 06:21 10.81723 106.65239 42 ft 135 kts 69°
2026-05-05 06:21 10.82131 106.66307 57 ft 184 kts 69°
2026-05-05 06:21 10.82593 106.67538 1039 ft 183 kts 69°
2026-05-05 06:22 10.83068 106.68708 1868 ft 184 kts 68°
2026-05-05 06:22 10.83592 106.69961 2294 ft 203 kts 68°
2026-05-05 06:22 10.84190 106.71383 2521 ft 232 kts 68°
2026-05-05 06:22 10.84865 106.72984 2890 ft 257 kts 67°
2026-05-05 06:23 10.85580 106.74678 3627 ft 263 kts 67°
2026-05-05 06:23 10.86298 106.76399 4525 ft 263 kts 70°
2026-05-05 06:23 10.86710 106.78215 5306 ft 266 kts 83°
2026-05-05 06:23 10.86896 106.80096 6120 ft 269 kts 85°
2026-05-05 06:24 10.87049 106.81998 6928 ft 271 kts 85°
2026-05-05 06:24 10.87211 106.83926 7682 ft 275 kts 85°
2026-05-05 06:24 10.87387 106.85873 8426 ft 279 kts 85°
2026-05-05 06:24 10.87575 106.87853 9181 ft 282 kts 84°
2026-05-05 06:25 10.87771 106.89845 9926 ft 286 kts 84°
2026-05-05 06:25 10.87976 106.91894 10494 ft 297 kts 84°
2026-05-05 06:25 10.88199 106.94086 10687 ft 324 kts 84°
2026-05-05 06:25 10.88442 106.96454 10872 ft 349 kts 84°
2026-05-05 06:26 10.88699 106.98959 11157 ft 369 kts 84°
2026-05-05 06:26 10.88971 107.01589 11775 ft 379 kts 84°
2026-05-05 06:26 10.89289 107.04264 12515 ft 380 kts 78°
2026-05-05 06:26 10.90290 107.06778 13116 ft 391 kts 57°
2026-05-05 06:27 10.92104 107.08849 13876 ft 397 kts 39°
2026-05-05 06:27 10.96851 107.11811 15273 ft 406 kts 30°
2026-05-05 06:27 10.99306 107.13270 15965 ft 411 kts 31°
2026-05-05 06:28 11.01773 107.14770 16681 ft 415 kts 31°
2026-05-05 06:28 11.04268 107.16304 17327 ft 421 kts 31°
2026-05-05 06:28 11.06793 107.17860 17988 ft 426 kts 32°
2026-05-05 06:28 11.09343 107.19431 18577 ft 431 kts 31°
2026-05-05 06:29 11.11921 107.21019 19164 ft 435 kts 31°
2026-05-05 06:29 11.14522 107.22620 19766 ft 438 kts 32°
2026-05-05 06:29 11.17155 107.24215 20354 ft 442 kts 29°
2026-05-05 06:29 11.19902 107.25664 20911 ft 447 kts 26°
2026-05-05 06:30 11.22725 107.27020 21461 ft 451 kts 25°
2026-05-05 06:30 11.25590 107.28353 22006 ft 455 kts 25°
2026-05-05 06:30 11.28449 107.29684 22532 ft 459 kts 25°
2026-05-05 06:30 11.31394 107.31072 23073 ft 463 kts 25°
2026-05-05 06:31 11.34280 107.32450 23540 ft 467 kts 26°
2026-05-05 06:31 11.37228 107.33874 23989 ft 470 kts 26°
2026-05-05 06:31 11.40191 107.35313 24415 ft 473 kts 26°
2026-05-05 06:31 11.43160 107.36760 24853 ft 475 kts 26°
2026-05-05 06:32 11.46152 107.38221 25293 ft 478 kts 26°
2026-05-05 06:32 11.49167 107.39692 25690 ft 481 kts 26°
2026-05-05 06:32 11.52188 107.41167 26114 ft 484 kts 26°
2026-05-05 06:32 11.55243 107.42658 26471 ft 488 kts 26°
2026-05-05 06:33 11.58317 107.44158 26832 ft 491 kts 26°
2026-05-05 06:33 11.61411 107.45667 27231 ft 494 kts 26°
2026-05-05 06:33 11.64516 107.47183 27607 ft 497 kts 26°
2026-05-05 06:33 11.67650 107.48712 27993 ft 499 kts 26°
2026-05-05 06:34 11.70789 107.50245 28339 ft 502 kts 26°
2026-05-05 06:34 11.73952 107.51789 28675 ft 504 kts 26°
2026-05-05 06:34 11.77088 107.53321 28977 ft 507 kts 26°
2026-05-05 06:34 11.80283 107.54882 29282 ft 510 kts 26°
2026-05-05 06:35 11.83486 107.56448 29588 ft 512 kts 26°
2026-05-05 06:35 11.86701 107.58020 29858 ft 514 kts 26°
2026-05-05 06:35 11.89926 107.59597 30189 ft 514 kts 26°
2026-05-05 06:35 11.93158 107.61178 30487 ft 514 kts 26°
2026-05-05 06:36 11.96380 107.62754 30877 ft 513 kts 26°
2026-05-05 06:36 11.99597 107.64329 31256 ft 512 kts 25°
2026-05-05 06:36 12.02813 107.65903 31597 ft 511 kts 25°
2026-05-05 06:36 12.06005 107.67466 32122 ft 507 kts 25°
2026-05-05 06:37 12.09174 107.69019 32656 ft 503 kts 25°
2026-05-05 06:37 12.12332 107.70566 32997 ft 504 kts 25°
2026-05-05 06:37 12.15502 107.72120 33166 ft 508 kts 25°
2026-05-05 06:37 12.18708 107.73692 33339 ft 512 kts 25°
2026-05-05 06:38 12.21927 107.75271 33521 ft 515 kts 25°
2026-05-05 06:38 12.25154 107.76853 33944 ft 512 kts 25°
2026-05-05 06:38 12.28311 107.78403 34298 ft 510 kts 25°
2026-05-05 06:38 12.31508 107.79972 34708 ft 506 kts 25°
2026-05-05 06:39 12.34582 107.81693 35124 ft 503 kts 35°
2026-05-05 06:39 12.37265 107.83993 35421 ft 504 kts 42°
2026-05-05 06:39 12.39782 107.86482 35719 ft 503 kts 44°
2026-05-05 06:39 12.42268 107.88991 36047 ft 501 kts 43°
2026-05-05 06:40 12.44756 107.91467 36486 ft 496 kts 43°
2026-05-05 06:40 12.47257 107.93900 36788 ft 496 kts 41°
2026-05-05 06:40 12.49787 107.96314 36818 ft 500 kts 42°
2026-05-05 06:41 12.54907 108.01142 36880 ft 503 kts 41°
2026-05-05 06:41 12.60078 108.06024 36902 ft 507 kts 42°
2026-05-05 06:42 12.65261 108.10931 36893 ft 505 kts 41°
2026-05-05 06:42 12.70765 108.15320 36901 ft 500 kts 33°
2026-05-05 06:43 12.76505 108.19324 36909 ft 498 kts 33°
2026-05-05 06:43 12.82195 108.23301 36904 ft 499 kts 33°
2026-05-05 06:44 12.87914 108.27351 36914 ft 500 kts 33°
2026-05-05 06:44 12.93628 108.31417 36906 ft 500 kts 33°
2026-05-05 06:45 12.99348 108.35491 36902 ft 500 kts 33°
2026-05-05 06:45 13.05065 108.39562 36903 ft 500 kts 33°
2026-05-05 06:46 13.10778 108.43631 36911 ft 499 kts 32°
2026-05-05 06:46 13.16480 108.47695 36906 ft 498 kts 33°
2026-05-05 06:47 13.22177 108.51758 36900 ft 497 kts 33°
2026-05-05 06:47 13.27853 108.55808 36902 ft 496 kts 33°
2026-05-05 06:48 13.33527 108.59858 36907 ft 496 kts 33°
2026-05-05 06:48 13.39173 108.63880 36910 ft 496 kts 33°
2026-05-05 06:49 13.44845 108.67922 36897 ft 497 kts 33°
2026-05-05 06:49 13.50523 108.71988 36909 ft 498 kts 34°
2026-05-05 06:49 13.53121 108.74340 36905 ft 501 kts 48°
2026-05-05 06:50 13.55101 108.77290 36915 ft 503 kts 60°
2026-05-05 06:50 13.58119 108.83808 36918 ft 505 kts 63°
2026-05-05 06:51 13.61248 108.90219 36919 ft 505 kts 61°
2026-05-05 06:51 13.65123 108.96223 36915 ft 503 kts 48°
2026-05-05 06:52 13.69625 109.01726 36906 ft 503 kts 48°
2026-05-05 06:52 13.74090 109.07251 36912 ft 502 kts 49°
2026-05-05 06:53 13.85991 109.22303 36921 ft 502 kts 49°
2026-05-05 06:53 13.90391 109.27887 36910 ft 502 kts 49°
2026-05-05 06:54 13.94787 109.33465 36899 ft 501 kts 49°
2026-05-05 06:54 13.99150 109.39005 36902 ft 500 kts 49°
2026-05-05 06:55 14.03531 109.44570 36898 ft 500 kts 49°
2026-05-05 06:55 14.07915 109.50143 36902 ft 499 kts 49°
2026-05-05 06:56 14.12291 109.55711 36901 ft 499 kts 49°
2026-05-05 06:56 14.16663 109.61276 36902 ft 500 kts 49°
2026-05-05 06:57 14.21041 109.66853 36903 ft 501 kts 49°
2026-05-05 06:57 14.24683 109.71495 36902 ft 501 kts 49°
2026-05-05 06:58 14.29785 109.78002 36899 ft 502 kts 49°
2026-05-05 06:58 14.34173 109.83604 36899 ft 503 kts 49°
2026-05-05 06:59 14.37854 109.88306 36899 ft 503 kts 49°
2026-05-05 06:59 14.42256 109.93932 36901 ft 503 kts 49°
2026-05-05 07:00 14.46623 109.99518 36898 ft 504 kts 49°
2026-05-05 07:00 14.51024 110.05152 36902 ft 503 kts 49°
2026-05-05 07:01 14.55421 110.10783 36902 ft 503 kts 49°
2026-05-05 07:01 14.59817 110.16417 36893 ft 504 kts 49°
2026-05-05 07:02 14.64208 110.22049 36902 ft 504 kts 49°
2026-05-05 07:02 14.68577 110.27657 36898 ft 504 kts 49°
2026-05-05 07:03 14.72971 110.33301 36906 ft 504 kts 49°
2026-05-05 07:03 14.77371 110.38956 36897 ft 504 kts 49°
2026-05-05 07:04 14.85448 110.50117 36855 ft 506 kts 62°
2026-05-05 07:04 14.91346 110.64570 36880 ft 509 kts 66°
2026-05-05 07:05 14.95105 110.75738 36896 ft 511 kts 72°
2026-05-05 07:05 14.97099 110.82799 36901 ft 512 kts 72°
2026-05-05 07:06 14.98924 110.89922 36899 ft 514 kts 77°
2026-05-05 07:07 15.01207 111.04949 36900 ft 518 kts 80°
2026-05-05 07:07 15.02227 111.12282 36897 ft 519 kts 80°
2026-05-05 07:08 15.03242 111.19666 36893 ft 519 kts 80°
2026-05-05 07:08 15.04248 111.27074 36893 ft 519 kts 80°
2026-05-05 07:09 15.05234 111.34467 36887 ft 518 kts 83°
2026-05-05 07:09 15.05509 111.41913 36883 ft 516 kts 84°
2026-05-05 07:09 15.06168 111.45529 36882 ft 511 kts 68°
2026-05-05 07:10 15.07645 111.48846 36900 ft 506 kts 56°
2026-05-05 07:10 15.09695 111.51780 36896 ft 499 kts 45°
2026-05-05 07:10 15.12024 111.54439 36898 ft 500 kts 45°
2026-05-05 07:11 15.15875 111.58930 36896 ft 503 kts 45°
2026-05-05 07:11 15.21254 111.65351 36900 ft 506 kts 46°
2026-05-05 07:12 15.25823 111.70850 36902 ft 508 kts 46°
2026-05-05 07:12 15.29684 111.75500 36894 ft 509 kts 46°
2026-05-05 07:13 15.34308 111.81065 36889 ft 508 kts 46°
2026-05-05 07:13 15.38915 111.86610 36889 ft 507 kts 46°
2026-05-05 07:14 15.43519 111.92155 36890 ft 507 kts 46°
2026-05-05 07:14 15.48108 111.97686 36890 ft 506 kts 46°
2026-05-05 07:15 15.52663 112.03179 36892 ft 505 kts 46°
2026-05-05 07:15 15.57246 112.08711 36892 ft 505 kts 46°
2026-05-05 07:16 15.61818 112.14234 36896 ft 505 kts 46°
2026-05-05 07:16 15.66389 112.19760 36896 ft 505 kts 46°
2026-05-05 07:17 15.70969 112.25301 36891 ft 505 kts 46°
2026-05-05 07:17 15.75553 112.30850 36895 ft 506 kts 46°
2026-05-05 07:18 15.80133 112.36399 36898 ft 506 kts 46°
2026-05-05 07:18 15.84715 112.41955 36901 ft 506 kts 46°
2026-05-05 07:19 15.89294 112.47512 36892 ft 507 kts 46°
2026-05-05 07:19 15.93879 112.53079 36894 ft 507 kts 46°
2026-05-05 07:20 15.98458 112.58645 36891 ft 507 kts 46°
2026-05-05 07:20 16.03010 112.64181 36891 ft 507 kts 46°
2026-05-05 07:21 16.07588 112.69753 36886 ft 506 kts 46°
2026-05-05 07:21 16.12161 112.75323 36901 ft 506 kts 46°
2026-05-05 07:22 16.16732 112.80896 36887 ft 506 kts 46°
2026-05-05 07:22 16.21304 112.86474 36893 ft 506 kts 46°
2026-05-05 07:23 16.25866 112.92044 36895 ft 506 kts 46°
2026-05-05 07:23 16.30432 112.97624 36892 ft 506 kts 46°
2026-05-05 07:24 16.34993 113.03201 36892 ft 506 kts 46°
2026-05-05 07:24 16.39523 113.08746 36890 ft 506 kts 46°
2026-05-05 07:25 16.44087 113.14335 36890 ft 506 kts 46°
2026-05-05 07:25 16.48647 113.19925 36890 ft 507 kts 46°
2026-05-05 07:26 16.53216 113.25530 36895 ft 507 kts 46°
2026-05-05 07:26 16.57787 113.31142 36893 ft 508 kts 46°
2026-05-05 07:27 16.62359 113.36760 36891 ft 508 kts 46°
2026-05-05 07:27 16.66930 113.42382 36892 ft 508 kts 46°
2026-05-05 07:28 16.71506 113.48013 36893 ft 509 kts 46°
2026-05-05 07:28 16.76057 113.53619 36895 ft 510 kts 46°
2026-05-05 07:29 16.80672 113.59308 36892 ft 510 kts 46°
2026-05-05 07:29 16.85230 113.64931 36893 ft 511 kts 46°
2026-05-05 07:30 16.89820 113.70599 36890 ft 511 kts 46°
2026-05-05 07:30 16.96700 113.79104 36906 ft 511 kts 46°
2026-05-05 07:31 17.01289 113.84781 36895 ft 512 kts 47°
2026-05-05 07:31 17.05882 113.90470 36888 ft 512 kts 47°
2026-05-05 07:32 17.10470 113.96156 36893 ft 512 kts 47°
2026-05-05 07:32 17.15066 114.01858 36892 ft 512 kts 47°
2026-05-05 07:33 17.19658 114.07558 36896 ft 512 kts 47°
2026-05-05 07:33 17.24247 114.13260 36893 ft 512 kts 47°
2026-05-05 07:34 17.28834 114.18965 36895 ft 512 kts 47°
2026-05-05 07:34 17.33389 114.24634 36888 ft 512 kts 47°
2026-05-05 07:35 17.38004 114.30383 36888 ft 512 kts 47°
2026-05-05 07:35 17.42557 114.36060 36894 ft 512 kts 47°
2026-05-05 07:36 17.47144 114.41783 36892 ft 512 kts 47°
2026-05-05 07:36 17.51718 114.47496 36903 ft 512 kts 47°
2026-05-05 07:37 17.56299 114.53222 36908 ft 512 kts 47°
2026-05-05 07:37 17.60878 114.58951 36901 ft 513 kts 47°
2026-05-05 07:38 17.65465 114.64694 36883 ft 513 kts 47°
2026-05-05 07:38 17.70049 114.70439 36887 ft 514 kts 47°
2026-05-05 07:39 17.74634 114.76190 36903 ft 514 kts 47°
2026-05-05 07:39 17.79186 114.81905 36898 ft 514 kts 47°
2026-05-05 07:40 17.83774 114.87670 36895 ft 515 kts 47°
2026-05-05 07:40 17.88365 114.93445 36895 ft 515 kts 47°
2026-05-05 07:41 17.92955 114.99223 36897 ft 515 kts 47°
2026-05-05 07:41 17.97542 115.05001 36893 ft 515 kts 47°
2026-05-05 07:42 18.02124 115.10779 36897 ft 515 kts 47°
2026-05-05 07:42 18.06686 115.16537 36908 ft 515 kts 47°
2026-05-05 07:43 18.11267 115.22325 36899 ft 515 kts 47°
2026-05-05 07:43 18.15849 115.28118 36898 ft 515 kts 47°
2026-05-05 07:44 18.20432 115.33918 36902 ft 515 kts 47°
2026-05-05 07:44 18.25008 115.39715 36897 ft 515 kts 47°
2026-05-05 07:45 18.29586 115.45520 36902 ft 515 kts 47°
2026-05-05 07:45 18.34161 115.51325 36911 ft 515 kts 47°
2026-05-05 07:46 18.38731 115.57130 36904 ft 515 kts 47°
2026-05-05 07:46 18.43265 115.62894 36901 ft 514 kts 47°
2026-05-05 07:47 18.47825 115.68697 36899 ft 514 kts 47°
2026-05-05 07:47 18.52388 115.74509 36902 ft 514 kts 47°
2026-05-05 07:48 18.56945 115.80318 36900 ft 514 kts 47°
2026-05-05 07:48 18.61503 115.86134 36904 ft 515 kts 47°
2026-05-05 07:49 18.66071 115.91968 36901 ft 515 kts 47°
2026-05-05 07:49 18.70626 115.97792 36901 ft 514 kts 47°
2026-05-05 07:50 18.75178 116.03616 36906 ft 514 kts 47°
2026-05-05 07:50 18.79700 116.09409 36904 ft 514 kts 47°
2026-05-05 07:51 18.84245 116.15235 36916 ft 514 kts 47°
2026-05-05 07:51 18.88793 116.21071 36908 ft 514 kts 47°
2026-05-05 07:52 18.93340 116.26911 36902 ft 514 kts 47°
2026-05-05 07:52 18.97882 116.32751 36896 ft 514 kts 47°
2026-05-05 07:53 19.02420 116.38590 36907 ft 514 kts 47°
2026-05-05 07:53 19.06963 116.44441 36913 ft 514 kts 47°
2026-05-05 07:54 19.11501 116.50293 36909 ft 514 kts 47°
2026-05-05 07:54 19.16037 116.56147 36906 ft 514 kts 47°
2026-05-05 07:55 19.20574 116.62007 36906 ft 515 kts 47°
2026-05-05 07:55 19.25084 116.67838 36910 ft 515 kts 47°
2026-05-05 07:56 19.29620 116.73709 36910 ft 515 kts 47°
2026-05-05 07:56 19.34161 116.79593 36905 ft 515 kts 47°
2026-05-05 07:57 19.38694 116.85470 36917 ft 516 kts 48°
2026-05-05 07:57 19.43231 116.91359 36904 ft 516 kts 48°
2026-05-05 07:58 19.47774 116.97263 36910 ft 516 kts 48°
2026-05-05 07:58 19.52313 117.03166 36912 ft 516 kts 48°
2026-05-05 07:59 19.56818 117.09031 36912 ft 516 kts 48°
2026-05-05 07:59 19.61351 117.14939 36929 ft 516 kts 48°
2026-05-05 08:00 19.65116 117.19850 36916 ft 516 kts 48°
2026-05-05 08:00 19.70412 117.26764 36912 ft 516 kts 48°
2026-05-05 08:01 19.74171 117.31676 36907 ft 516 kts 48°
2026-05-05 08:01 19.78694 117.37593 36908 ft 515 kts 48°
2026-05-05 08:02 19.83218 117.43516 36897 ft 515 kts 48°
2026-05-05 08:02 19.87731 117.49432 36909 ft 515 kts 48°
2026-05-05 08:03 19.92246 117.55356 36904 ft 515 kts 48°
2026-05-05 08:03 19.96755 117.61278 36907 ft 515 kts 48°
2026-05-05 08:04 20.01265 117.67207 36918 ft 516 kts 48°
2026-05-05 08:04 20.05776 117.73144 36907 ft 516 kts 48°
2026-05-05 08:05 20.10263 117.79054 36933 ft 517 kts 48°
2026-05-05 08:05 20.14779 117.85009 36917 ft 517 kts 48°
2026-05-05 08:06 20.19296 117.90972 36909 ft 517 kts 48°
2026-05-05 08:06 20.23819 117.96949 36929 ft 518 kts 48°
2026-05-05 08:07 20.28337 118.02925 36934 ft 518 kts 48°
2026-05-05 08:07 20.32852 118.08903 36914 ft 518 kts 49°
2026-05-05 08:08 20.37370 118.14891 36916 ft 519 kts 48°
2026-05-05 08:08 20.41891 118.20891 36926 ft 519 kts 48°
2026-05-05 08:09 20.46386 118.26860 36918 ft 520 kts 49°
2026-05-05 08:09 20.50911 118.32877 36927 ft 520 kts 49°
2026-05-05 08:10 20.55433 118.38896 36925 ft 520 kts 49°
2026-05-05 08:10 20.59953 118.44919 36925 ft 520 kts 48°
2026-05-05 08:11 20.64482 118.50960 36924 ft 521 kts 48°
2026-05-05 08:11 20.69011 118.57008 36926 ft 521 kts 49°
2026-05-05 08:12 20.73540 118.63061 36927 ft 522 kts 49°
2026-05-05 08:12 20.78067 118.69119 36927 ft 522 kts 49°
2026-05-05 08:13 20.82595 118.75185 36935 ft 522 kts 48°
2026-05-05 08:13 20.87124 118.81257 36932 ft 523 kts 48°
2026-05-05 08:14 20.91640 118.87320 36932 ft 524 kts 48°
2026-05-05 08:14 20.96176 118.93416 36935 ft 524 kts 49°
2026-05-05 08:15 21.00720 118.99529 36935 ft 524 kts 49°
2026-05-05 08:15 21.05254 119.05636 36948 ft 525 kts 48°
2026-05-05 08:16 21.09802 119.11768 36939 ft 526 kts 48°
2026-05-05 08:16 21.14352 119.17908 36941 ft 526 kts 49°
2026-05-05 08:17 21.18906 119.24062 36938 ft 527 kts 49°
2026-05-05 08:17 21.23460 119.30222 36940 ft 527 kts 49°
2026-05-05 08:18 21.28003 119.36375 36954 ft 527 kts 48°
2026-05-05 08:18 21.32554 119.42545 36938 ft 528 kts 48°
2026-05-05 08:19 21.37082 119.48691 36943 ft 528 kts 48°
2026-05-05 08:19 21.41640 119.54883 36942 ft 528 kts 49°
2026-05-05 08:20 21.46190 119.61073 36945 ft 528 kts 49°
2026-05-05 08:20 21.50740 119.67270 36961 ft 529 kts 49°
2026-05-05 08:21 21.55299 119.73486 36946 ft 529 kts 49°
2026-05-05 08:21 21.59855 119.79706 36946 ft 530 kts 49°
2026-05-05 08:22 21.64411 119.85932 36945 ft 530 kts 49°
2026-05-05 08:22 21.68970 119.92170 36947 ft 530 kts 49°
2026-05-05 08:23 21.74085 119.97623 36963 ft 516 kts 26°
2026-05-05 08:23 21.77253 119.99359 36955 ft 510 kts 15°
2026-05-05 08:23 21.80633 120.00401 36946 ft 501 kts
2026-05-05 08:24 21.87568 120.01306 36955 ft 505 kts
2026-05-05 08:24 21.94575 120.02283 36959 ft 508 kts
2026-05-05 08:25 22.01519 120.03346 36958 ft 499 kts
2026-05-05 08:25 22.08389 120.04404 36952 ft 499 kts
2026-05-05 08:26 22.15257 120.05481 36952 ft 499 kts
2026-05-05 08:26 22.22143 120.06562 36941 ft 500 kts
2026-05-05 08:27 22.29038 120.07642 36943 ft 501 kts
2026-05-05 08:27 22.35921 120.08702 36943 ft 501 kts
2026-05-05 08:28 22.42792 120.09744 36940 ft 502 kts
2026-05-05 08:28 22.49742 120.10802 36946 ft 502 kts
2026-05-05 08:29 22.56626 120.11855 36942 ft 503 kts
2026-05-05 08:30 22.67029 120.13448 36927 ft 503 kts
2026-05-05 08:30 22.73955 120.14511 36958 ft 503 kts
2026-05-05 08:31 22.80899 120.15576 36974 ft 503 kts
2026-05-05 08:31 22.87845 120.16643 36973 ft 504 kts
2026-05-05 08:32 22.94788 120.17712 36968 ft 504 kts
2026-05-05 08:32 23.01726 120.18782 36966 ft 504 kts
2026-05-05 08:33 23.08673 120.19854 36967 ft 504 kts
2026-05-05 08:33 23.15565 120.21251 36958 ft 513 kts
2026-05-05 08:34 23.22371 120.23699 36993 ft 517 kts 13°
2026-05-05 08:34 23.29169 120.26252 36986 ft 517 kts 12°
2026-05-05 08:35 23.35976 120.28752 37017 ft 516 kts 12°
2026-05-05 08:35 23.42798 120.31225 37001 ft 516 kts 12°
2026-05-05 08:36 23.49618 120.33700 36997 ft 517 kts 12°
2026-05-05 08:36 23.56439 120.36183 37000 ft 516 kts 12°
2026-05-05 08:37 23.63256 120.38668 37014 ft 517 kts 11°
2026-05-05 08:37 23.70076 120.41155 37006 ft 517 kts 11°
2026-05-05 08:38 23.76901 120.43649 37004 ft 517 kts 11°
2026-05-05 08:38 23.83720 120.46143 37008 ft 517 kts 11°
2026-05-05 08:39 23.90391 120.49052 37021 ft 526 kts 20°
2026-05-05 08:39 23.96652 120.53292 37011 ft 536 kts 30°
2026-05-05 08:40 24.02629 120.58189 37013 ft 537 kts 31°
2026-05-05 08:40 24.08599 120.63099 37006 ft 537 kts 31°
2026-05-05 08:41 24.14622 120.67982 36991 ft 538 kts 30°
2026-05-05 08:41 24.20655 120.72848 37004 ft 541 kts 30°
2026-05-05 08:42 24.26710 120.77742 37036 ft 541 kts 30°
2026-05-05 08:42 24.32776 120.82655 37023 ft 543 kts 31°
2026-05-05 08:43 24.38844 120.87579 37027 ft 542 kts 31°
2026-05-05 08:43 24.44861 120.92466 37028 ft 541 kts 31°
2026-05-05 08:44 24.50877 120.97358 37024 ft 541 kts 31°
2026-05-05 08:44 24.56927 121.02289 37038 ft 542 kts 31°
2026-05-05 08:45 24.62988 121.07236 37031 ft 543 kts 31°
2026-05-05 08:45 24.69062 121.12192 37048 ft 542 kts 31°
2026-05-05 08:46 24.75120 121.17158 37019 ft 543 kts 31°
2026-05-05 08:46 24.81151 121.22112 37033 ft 543 kts 31°
2026-05-05 08:47 24.87221 121.27090 36993 ft 543 kts 31°
2026-05-05 08:47 24.93233 121.32030 37005 ft 542 kts 31°
2026-05-05 08:48 24.99269 121.36995 37008 ft 542 kts 31°
2026-05-05 08:48 25.05327 121.41984 36998 ft 544 kts 31°
2026-05-05 08:49 25.10359 121.46136 36999 ft 544 kts 31°
2026-05-05 08:49 25.16393 121.51204 36999 ft 547 kts 35°
2026-05-05 08:50 25.21819 121.57173 37033 ft 556 kts 45°
2026-05-05 08:50 25.26890 121.63681 36990 ft 559 kts 45°
2026-05-05 08:51 25.31969 121.70193 36999 ft 558 kts 45°
2026-05-05 08:51 25.37057 121.76645 37019 ft 556 kts 44°
2026-05-05 08:52 25.42176 121.83120 36974 ft 561 kts 45°
2026-05-05 08:52 25.47301 121.89611 37016 ft 559 kts 45°
2026-05-05 08:53 25.52399 121.96087 37019 ft 557 kts 45°
2026-05-05 08:53 25.57444 122.02505 37027 ft 555 kts 45°
2026-05-05 08:54 25.62801 122.08593 37020 ft 549 kts 36°
2026-05-05 08:54 25.68876 122.13614 37037 ft 544 kts 28°
2026-05-05 08:55 25.75136 122.18362 37037 ft 547 kts 28°
2026-05-05 08:55 25.81403 122.23178 37046 ft 549 kts 29°
2026-05-05 08:56 25.87681 122.28071 37061 ft 552 kts 30°
2026-05-05 08:56 25.93981 122.32998 37054 ft 555 kts 30°
2026-05-05 08:57 26.00312 122.37949 37049 ft 557 kts 30°
2026-05-05 08:57 26.06657 122.42915 37015 ft 557 kts 30°
2026-05-05 08:58 26.12970 122.47865 37040 ft 554 kts 30°
2026-05-05 08:58 26.19264 122.52808 37053 ft 553 kts 30°
2026-05-05 08:59 26.25531 122.57758 37055 ft 552 kts 30°
2026-05-05 08:59 26.31800 122.62722 37067 ft 553 kts 30°
2026-05-05 09:00 26.38037 122.67663 37055 ft 554 kts 30°
2026-05-05 09:00 26.44329 122.72655 37067 ft 556 kts 30°
2026-05-05 09:01 26.50653 122.77678 37070 ft 557 kts 30°
2026-05-05 09:01 26.56992 122.82715 37064 ft 560 kts 30°
2026-05-05 09:02 26.63343 122.87740 37059 ft 560 kts 30°
2026-05-05 09:02 26.69704 122.92776 37057 ft 559 kts 30°
2026-05-05 09:03 26.76048 122.97811 37075 ft 559 kts 30°
2026-05-05 09:03 26.82396 123.02859 37061 ft 559 kts 30°
2026-05-05 09:04 26.88690 123.07885 37061 ft 559 kts 30°
2026-05-05 09:04 26.95021 123.12950 37066 ft 559 kts 30°
2026-05-05 09:05 27.01357 123.18025 37048 ft 559 kts 30°
2026-05-05 09:05 27.07680 123.23096 37063 ft 558 kts 30°
2026-05-05 09:06 27.13994 123.28167 37067 ft 558 kts 30°
2026-05-05 09:06 27.20316 123.33250 37067 ft 560 kts 30°
2026-05-05 09:07 27.26649 123.38350 37073 ft 560 kts 30°
2026-05-05 09:07 27.32983 123.43460 37072 ft 560 kts 30°
2026-05-05 09:08 27.39281 123.48546 37080 ft 562 kts 30°
2026-05-05 09:08 27.45629 123.53681 37076 ft 563 kts 30°
2026-05-05 09:09 27.51988 123.58833 37076 ft 563 kts 30°
2026-05-05 09:09 27.58342 123.63989 37101 ft 564 kts 30°
2026-05-05 09:10 27.64692 123.69212 37059 ft 566 kts 32°
2026-05-05 09:10 27.70884 123.74717 37079 ft 566 kts 34°
2026-05-05 09:11 27.77039 123.80273 37123 ft 566 kts 33°
2026-05-05 09:11 27.83230 123.85789 37089 ft 567 kts 33°
2026-05-05 09:12 27.89441 123.91299 37086 ft 567 kts 33°
2026-05-05 09:12 27.95644 123.96816 37072 ft 568 kts 33°
2026-05-05 09:13 28.01820 124.02322 37099 ft 568 kts 33°
2026-05-05 09:13 28.08023 124.07858 37091 ft 568 kts 33°
2026-05-05 09:14 28.14233 124.13410 37096 ft 568 kts 33°
2026-05-05 09:14 28.20443 124.18971 37091 ft 569 kts 33°
2026-05-05 09:15 28.26660 124.24550 37087 ft 568 kts 33°
2026-05-05 09:15 28.32863 124.30122 37091 ft 568 kts 33°
2026-05-05 09:16 28.39058 124.35696 37097 ft 569 kts 33°
2026-05-05 09:16 28.45226 124.41253 37100 ft 569 kts 33°
2026-05-05 09:17 28.51419 124.46843 37095 ft 569 kts 33°
2026-05-05 09:17 28.57607 124.52439 37102 ft 569 kts 33°
2026-05-05 09:18 28.63803 124.58047 37100 ft 569 kts 33°
2026-05-05 09:18 28.69990 124.63658 37101 ft 569 kts 33°
2026-05-05 09:19 28.76382 124.68863 37116 ft 561 kts 24°
2026-05-05 09:19 28.83307 124.72807 37100 ft 550 kts 13°
2026-05-05 09:20 28.90490 124.75677 37100 ft 546 kts 10°
2026-05-05 09:20 28.97712 124.78456 37104 ft 548 kts 10°
2026-05-05 09:21 29.04933 124.81292 37101 ft 550 kts 11°
2026-05-05 09:21 29.12170 124.84183 37104 ft 551 kts 11°
2026-05-05 09:22 29.19409 124.87088 37118 ft 552 kts 11°
2026-05-05 09:22 29.26657 124.89996 37107 ft 552 kts 11°
2026-05-05 09:23 29.33909 124.92907 37106 ft 552 kts 11°
2026-05-05 09:23 29.41119 124.95804 37128 ft 553 kts 11°
2026-05-05 09:24 29.48380 124.98726 37113 ft 553 kts 11°
2026-05-05 09:24 29.55636 125.01652 37104 ft 552 kts 11°
2026-05-05 09:25 29.62890 125.04581 37108 ft 553 kts 11°
2026-05-05 09:25 29.70149 125.07516 37110 ft 552 kts 11°
2026-05-05 09:26 29.77390 125.10449 37107 ft 552 kts 11°
2026-05-05 09:26 29.84636 125.13387 37115 ft 552 kts 11°
2026-05-05 09:27 29.91883 125.16332 37106 ft 552 kts 11°
2026-05-05 09:27 29.99118 125.19277 37107 ft 551 kts 11°
2026-05-05 09:28 30.06312 125.22211 37111 ft 552 kts 11°
2026-05-05 09:28 30.13553 125.25176 37098 ft 552 kts 11°
2026-05-05 09:29 30.20794 125.28146 37110 ft 552 kts 11°
2026-05-05 09:29 30.28039 125.31124 37116 ft 553 kts 11°
2026-05-05 09:30 30.35301 125.34113 37116 ft 554 kts 11°
2026-05-05 09:30 30.42559 125.37104 37147 ft 554 kts 11°
2026-05-05 09:31 30.49837 125.40107 37123 ft 555 kts 11°
2026-05-05 09:31 30.57115 125.43117 37122 ft 555 kts 11°
2026-05-05 09:32 30.64394 125.46131 37147 ft 555 kts 11°
2026-05-05 09:32 30.71631 125.49133 37124 ft 555 kts 11°
2026-05-05 09:33 30.78905 125.52155 37121 ft 555 kts 11°
2026-05-05 09:33 30.86168 125.55177 37129 ft 555 kts 11°
2026-05-05 09:34 30.93448 125.58211 37120 ft 555 kts 11°
2026-05-05 09:34 30.99483 125.60730 37119 ft 554 kts 11°
2026-05-05 09:35 31.07975 125.64280 37118 ft 554 kts 11°
2026-05-05 09:35 31.17628 125.68323 37120 ft 554 kts 11°
2026-05-05 09:36 31.24883 125.71368 37154 ft 554 kts 12°
2026-05-05 09:36 31.32149 125.74422 37121 ft 554 kts 12°
2026-05-05 09:37 31.39405 125.77478 37113 ft 554 kts 11°
2026-05-05 09:37 31.46652 125.80536 37129 ft 554 kts 12°
2026-05-05 09:38 31.53855 125.83580 37124 ft 554 kts 12°
2026-05-05 09:38 31.61099 125.86643 37119 ft 553 kts 11°
2026-05-05 09:39 31.68351 125.89692 37119 ft 553 kts 12°
2026-05-05 09:39 31.75586 125.92738 37113 ft 552 kts 12°
2026-05-05 09:40 31.82809 125.95784 37157 ft 550 kts 12°
2026-05-05 09:40 31.90010 125.98822 37119 ft 549 kts 12°
2026-05-05 09:41 31.97194 126.01858 37117 ft 547 kts 12°
2026-05-05 09:41 32.04352 126.04888 37143 ft 546 kts 12°
2026-05-05 09:42 32.11447 126.07894 37121 ft 545 kts 12°
2026-05-05 09:42 32.18580 126.10915 37121 ft 544 kts 12°
2026-05-05 09:43 32.25701 126.13935 37130 ft 543 kts 13°
2026-05-05 09:43 32.32819 126.16962 37121 ft 542 kts 13°
2026-05-05 09:44 32.39916 126.19985 37121 ft 542 kts 13°
2026-05-05 09:44 32.47004 126.23009 37120 ft 541 kts 13°
2026-05-05 09:45 32.54076 126.26032 37098 ft 540 kts 13°
2026-05-05 09:45 32.61144 126.29065 37158 ft 540 kts 13°
2026-05-05 09:46 32.68182 126.32097 37127 ft 541 kts 13°
2026-05-05 09:46 32.75262 126.35153 37122 ft 541 kts 13°
2026-05-05 09:47 32.82331 126.38208 37140 ft 541 kts 14°
2026-05-05 09:47 32.89404 126.41271 37120 ft 540 kts 14°
2026-05-05 09:48 32.96456 126.44330 37118 ft 538 kts 14°
2026-05-05 09:48 33.03489 126.47375 37121 ft 537 kts 13°
2026-05-05 09:49 33.10495 126.50370 37090 ft 536 kts 13°
2026-05-05 09:49 33.17513 126.53364 37151 ft 542 kts 13°
2026-05-05 09:50 33.24599 126.56410 37117 ft 539 kts 13°
2026-05-05 09:50 33.31630 126.59439 37105 ft 536 kts 13°
2026-05-05 09:51 33.38636 126.62458 37121 ft 534 kts 14°
2026-05-05 09:51 33.45601 126.65499 37107 ft 532 kts 14°
2026-05-05 09:52 33.52571 126.68498 37109 ft 529 kts 11°
2026-05-05 09:52 33.59678 126.70381 37109 ft 518 kts 359°
2026-05-05 09:53 33.66797 126.71104 37113 ft 515 kts 357°
2026-05-05 09:53 33.73877 126.71783 37093 ft 505 kts 358°
2026-05-05 09:54 33.80842 126.72518 37107 ft 500 kts 358°
2026-05-05 09:54 33.85475 126.73018 37101 ft 499 kts 358°
2026-05-05 09:55 33.94672 126.73991 37136 ft 497 kts 358°
2026-05-05 09:55 34.01566 126.74705 37121 ft 497 kts 358°
2026-05-05 09:56 34.08473 126.75428 37115 ft 498 kts 358°
2026-05-05 09:56 34.15392 126.76149 37143 ft 500 kts 358°
2026-05-05 09:57 34.22292 126.76873 37113 ft 501 kts 358°
2026-05-05 09:57 34.29289 126.77608 37112 ft 502 kts 358°
2026-05-05 09:58 34.36191 126.78337 37136 ft 501 kts 359°
2026-05-05 09:58 34.43136 126.79073 37114 ft 500 kts 359°
2026-05-05 09:59 34.50031 126.79806 37105 ft 491 kts 359°
2026-05-05 09:59 34.53375 126.80168 37106 ft 478 kts 359°
2026-05-05 09:59 34.56691 126.80521 37134 ft 477 kts 359°
2026-05-05 10:00 34.63263 126.81216 37104 ft 471 kts 359°
2026-05-05 10:00 34.69763 126.81906 37102 ft 467 kts 359°
2026-05-05 10:01 34.76231 126.82592 37129 ft 467 kts 359°
2026-05-05 10:01 34.82718 126.83281 37108 ft 469 kts 359°
2026-05-05 10:02 34.89199 126.83974 37115 ft 471 kts 359°
2026-05-05 10:02 34.95748 126.84677 37115 ft 473 kts 359°
2026-05-05 10:03 35.02315 126.85382 37111 ft 475 kts 359°
2026-05-05 10:03 35.08906 126.86091 37109 ft 476 kts 359°
2026-05-05 10:04 35.15506 126.86802 37128 ft 476 kts 360°
2026-05-05 10:04 35.22098 126.87520 37104 ft 474 kts 360°
2026-05-05 10:05 35.28658 126.88236 37095 ft 471 kts 360°
2026-05-05 10:05 35.35129 126.88942 37095 ft 468 kts 360°
2026-05-05 10:06 35.41581 126.89647 37107 ft 464 kts 360°
2026-05-05 10:06 35.48021 126.90349 37098 ft 465 kts 360°
2026-05-05 10:07 35.54481 126.91056 37129 ft 467 kts
2026-05-05 10:07 35.60962 126.91763 37102 ft 469 kts
2026-05-05 10:08 35.67475 126.92477 37098 ft 470 kts
2026-05-05 10:08 35.73983 126.93192 37110 ft 470 kts
2026-05-05 10:09 35.80497 126.93908 37090 ft 469 kts
2026-05-05 10:09 35.86996 126.94624 37083 ft 467 kts
2026-05-05 10:10 35.93421 126.95334 37103 ft 466 kts
2026-05-05 10:10 35.99872 126.96054 37072 ft 464 kts
2026-05-05 10:11 36.06298 126.96773 37086 ft 463 kts
2026-05-05 10:11 36.12702 126.97490 37098 ft 461 kts
2026-05-05 10:12 36.19099 126.98207 37064 ft 461 kts
2026-05-05 10:12 36.25483 126.98923 37062 ft 460 kts
2026-05-05 10:13 36.31870 126.99633 37076 ft 460 kts
2026-05-05 10:13 36.38255 127.00341 37073 ft 461 kts 359°
2026-05-05 10:14 36.44637 127.00257 37060 ft 458 kts 353°
2026-05-05 10:14 36.51015 126.99932 37076 ft 459 kts 354°
2026-05-05 10:15 36.57375 126.99684 37056 ft 460 kts 354°
2026-05-05 10:15 36.63774 126.99458 37042 ft 460 kts 354°
2026-05-05 10:16 36.66961 126.99345 36907 ft 456 kts 354°
2026-05-05 10:16 36.70115 126.99215 36501 ft 448 kts 348°
2026-05-05 10:16 36.73057 126.98262 35997 ft 433 kts 334°
2026-05-05 10:16 36.75745 126.96538 34927 ft 440 kts 323°
2026-05-05 10:17 36.78102 126.94013 33813 ft 454 kts 313°
2026-05-05 10:17 36.80317 126.91125 33008 ft 465 kts 312°
2026-05-05 10:17 36.82534 126.88162 32532 ft 467 kts 312°
2026-05-05 10:17 36.84723 126.85291 31625 ft 447 kts 313°
2026-05-05 10:18 36.86852 126.82568 29942 ft 444 kts 313°
2026-05-05 10:18 36.89021 126.79839 28709 ft 432 kts 314°
2026-05-05 10:18 36.91154 126.77162 27554 ft 427 kts 314°
2026-05-05 10:18 36.93231 126.74545 26313 ft 437 kts 314°
2026-05-05 10:19 36.95406 126.71796 25614 ft 450 kts 314°
2026-05-05 10:19 36.97618 126.68998 24854 ft 456 kts 315°
2026-05-05 10:19 36.99870 126.66148 23998 ft 459 kts 315°
2026-05-05 10:19 37.01894 126.63156 23489 ft 446 kts 302°
2026-05-05 10:20 37.02818 126.60850 23340 ft 450 kts 291°